STARLINK-35149

Last updated on Mon Oct 06 2025 00:02:05 GMT+0000 (Coordinated Universal Time)

1 65512U 25198W 25278.50001156 -.00009768 00000+0 -16785-3 0 9997 2 65512 53.1589 280.4330 0001157 79.0592 105.7027 15.49298592 5649
UTC large
Height (km)
Speed (km/s)
/
Latitude / Longitude
Inclination (degrees)
Orbital Period (minutes)
Azimuth
Elevation
Range (km)
Doppler Factor

Next 0 passes for location: London (51.5072 / 0.1276)

Sorry there are no passes over London.
STARLINK-35149